,Output(kWh),Demand(kWh),Import(kWh),Export(kWh),HW(kWh),HWPV(kWh),Output(kWh/d),Demand(kWh/d),Import(kWh/d),Export(kWh/d),HW(kWh/d),HWPV(kWh/d)
07/01/2016,0.002,0,0,0.002,0,0,0.002,0,0,0.002,0,0
08/01/2016,2.545,0.112,0.055,2.487,2.83,2.811,2.543,0.112,0.055,2.485,2.83,2.811
09/01/2016,10.73,6.573,4.738,8.898,7.245,6.885,8.185,6.461,4.683,6.411,4.415,4.074
10/01/2016,18.74,17.49,12.37,13.62,10.34,9.229,8.01,10.917,7.632,4.722,3.095,2.344
11/01/2016,27.46,28.76,20.05,18.75,15.34,13.49,8.72,11.27,7.68,5.13,5,4.261
12/01/2016,35.95,39.06,26.96,23.85,20.62,18.04,8.49,10.3,6.91,5.1,5.28,4.55
13/01/2016,44.52,49.83,34.28,28.97,24.07,20.76,8.57,10.77,7.32,5.12,3.45,2.72
14/01/2016,53.51,60.63,41.35,34.23,29.18,25.09,8.99,10.8,7.07,5.26,5.11,4.33
15/01/2016,62.36,73.31,50.32,39.39,32.73,27.96,8.85,12.68,8.97,5.16,3.55,2.87
16/01/2016,71.43,88.9,61.76,44.29,36.58,31.15,9.07,15.59,11.44,4.9,3.85,3.19
17/01/2016,80.74,96.89,66.32,50.17,42.59,36.64,9.31,7.99,4.56,5.88,6.01,5.49
18/01/2016,88.89,105.99,72.5,55.38,46.35,39.81,8.15,9.1,6.18,5.21,3.76,3.17
19/01/2016,97.47,120.19,82.86,60.1,49.41,42.19,8.58,14.2,10.36,4.72,3.06,2.38
20/01/2016,106.68,130.07,88.99,65.56,53.62,45.75,9.21,9.88,6.13,5.46,4.21,3.56
21/01/2016,115.94,139.19,94.32,71.04,58.19,49.66,9.26,9.12,5.33,5.48,4.57,3.91
22/01/2016,124.75,150.3,101.89,76.3,62.9,53.79,8.81,11.11,7.57,5.26,4.71,4.13
23/01/2016,133.07,162.4,110.49,81.12,65.64,55.92,8.32,12.1,8.6,4.82,2.74,2.13
24/01/2016,141.93,175.33,119.73,86.27,69.31,59.03,8.86,12.93,9.24,5.15,3.67,3.11
25/01/2016,150.74,192.01,132.42,91.09,74.41,63.55,8.81,16.68,12.69,4.82,5.1,4.52
26/01/2016,159.85,204.67,141.26,96.37,79.34,67.88,9.11,12.66,8.84,5.28,4.93,4.33
27/01/2016,168.14,216.64,149.8,101.21,82.02,69.95,8.29,11.97,8.54,4.84,2.68,2.07
28/01/2016,176.11,229.7,159.59,105.91,84.67,72.03,7.97,13.06,9.79,4.7,2.65,2.08
29/01/2016,186.13,242.56,168.17,111.65,89.5,76.3,10.02,12.86,8.58,5.74,4.83,4.27
30/01/2016,194.53,253.45,175.73,116.71,92.49,78.71,8.4,10.89,7.56,5.06,2.99,2.41
31/01/2016,203.46,265.02,183.56,121.9,96.47,82.04,8.93,11.57,7.83,5.19,3.98,3.33
01/02/2016,211.94,277.09,192.01,126.76,99.47,84.41,8.48,12.07,8.45,4.86,3,2.37
02/02/2016,220.61,291.55,202.4,131.36,102.29,86.53,8.67,14.46,10.39,4.6,2.82,2.12
03/02/2016,230.67,307.73,213.9,136.75,105.25,88.88,10.06,16.18,11.5,5.39,2.96,2.35
04/02/2016,239.86,323.22,225.1,141.64,108.32,91.39,9.19,15.49,11.2,4.89,3.07,2.51
05/02/2016,249,337.62,235.75,147.02,112.73,95.23,9.14,14.4,10.65,5.38,4.41,3.84
06/02/2016,257.8,351.47,245.7,151.92,115.89,97.82,8.8,13.85,9.95,4.9,3.16,2.59
07/02/2016,266.17,362.79,253.7,156.97,118.89,100.22,8.37,11.32,8,5.05,3,2.4
08/02/2016,276.84,373.64,260.51,163.57,123.76,104.6,10.67,10.85,6.81,6.6,4.87,4.38
09/02/2016,286.29,392.12,274.41,168.4,126.49,106.84,9.45,18.48,13.9,4.83,2.73,2.24
10/02/2016,295.61,399.63,278.36,174.15,130.61,110.44,9.32,7.51,3.95,5.75,4.12,3.6
11/02/2016,304.75,410.67,285.74,179.61,134,113.27,9.14,11.04,7.38,5.46,3.39,2.83
12/02/2016,315.99,419.13,290.23,186.87,139.58,118.66,11.24,8.46,4.49,7.26,5.58,5.39
13/02/2016,326,424.72,293.59,194.62,145.04,123.95,10.01,5.59,3.36,7.75,5.46,5.29
14/02/2016,334.29,431.32,297.93,200.64,150.17,128.73,8.29,6.6,4.34,6.02,5.13,4.78
15/02/2016,344.79,434.91,299.12,208.75,155.7,134.01,10.5,3.59,1.19,8.11,5.53,5.28
16/02/2016,356.6,440.85,301.8,217.29,161.63,139.68,11.81,5.94,2.68,8.54,5.93,5.67
17/02/2016,369.62,445.94,304.16,227.59,167.3,145.18,13.02,5.09,2.36,10.3,5.67,5.5
18/02/2016,378.39,452.16,308.21,234.15,172.02,149.48,8.77,6.22,4.05,6.56,4.72,4.3
19/02/2016,389.52,458.65,311.16,241.72,177.48,154.62,11.13,6.49,2.95,7.57,5.46,5.14
20/02/2016,401.84,464.16,314.51,251.84,183.18,160.21,12.32,5.51,3.35,10.12,5.7,5.59
21/02/2016,411.32,470.73,318.42,258.64,187.61,164.19,9.48,6.57,3.91,6.8,4.43,3.98
22/02/2016,420.77,473.77,319.98,266.56,193.19,169.66,9.45,3.04,1.56,7.92,5.58,5.47
23/02/2016,430.21,479.08,323.39,274.06,198.74,175.07,9.44,5.31,3.41,7.5,5.55,5.41
24/02/2016,441.86,486.22,326.98,282.13,203.79,179.75,11.65,7.14,3.59,8.07,5.05,4.68
25/02/2016,454.78,493.62,331.07,291.73,209.06,184.78,12.92,7.4,4.09,9.6,5.27,5.03
26/02/2016,467.23,498.59,333.86,301.93,214.58,190.22,12.45,4.97,2.79,10.2,5.52,5.44
27/02/2016,479.4,505.59,336.87,310.06,220.37,195.73,12.17,7,3.01,8.13,5.79,5.51
28/02/2016,489.37,511.44,340.18,317.48,225.98,201.16,9.97,5.85,3.31,7.42,5.61,5.43
29/02/2016,499.84,518.51,344.57,325.26,231.22,206.2,10.47,7.07,4.39,7.78,5.24,5.04
01/03/2016,513.97,526.35,348.82,335.77,236.61,211.42,14.13,7.84,4.25,10.51,5.39,5.22
02/03/2016,523.17,533.97,353.7,342.19,241.97,216.56,9.2,7.62,4.88,6.42,5.36,5.14
03/03/2016,533.42,544.6,360.47,348.54,246.7,220.81,10.25,10.63,6.77,6.35,4.73,4.25
04/03/2016,547.12,554.77,366.05,357.64,251.83,225.67,13.7,10.17,5.58,9.1,5.13,4.86
05/03/2016,563.28,562.79,368.69,368.37,256.91,230.39,16.16,8.02,2.64,10.73,5.08,4.72
06/03/2016,573.19,573.4,375.16,374.12,260.34,233.28,9.91,10.61,6.47,5.75,3.43,2.89
07/03/2016,585.18,581.32,379.52,382.54,265.68,238.32,11.99,7.92,4.36,8.42,5.34,5.04
08/03/2016,601.7,591.88,385.05,393.98,270.49,242.75,16.52,10.56,5.53,11.44,4.81,4.43
09/03/2016,612.05,598.96,389.14,401.27,275.9,247.98,10.35,7.08,4.09,7.29,5.41,5.23
10/03/2016,621.99,605.67,392.66,407.95,281.22,252.98,9.94,6.71,3.52,6.68,5.32,5
11/03/2016,631.3,610.75,395.62,415.16,286.63,258.25,9.31,5.08,2.96,7.21,5.41,5.27
12/03/2016,645.59,618.75,398.93,424.89,291.37,262.55,14.29,8,3.31,9.73,4.74,4.3
13/03/2016,657.65,624.82,401.53,433.46,296.86,267.86,12.06,6.07,2.6,8.57,5.49,5.31
14/03/2016,671.73,631.1,404.51,444.12,302.56,273.38,14.08,6.28,2.98,10.66,5.7,5.52
15/03/2016,688.82,639.53,408.29,456.55,305.99,276.45,17.09,8.43,3.78,12.43,3.43,3.07
16/03/2016,699.29,649.12,413.75,462.91,309.92,279.84,10.47,9.59,5.46,6.36,3.93,3.39
17/03/2016,711.12,656.89,417.85,471.07,315.4,285.11,11.83,7.77,4.1,8.16,5.48,5.27
18/03/2016,728.59,663.81,420.79,484.46,318.14,287.55,17.47,6.92,2.94,13.39,2.74,2.44
19/03/2016,737.63,666.65,422.07,491.83,323.6,292.77,9.04,2.84,1.28,7.37,5.46,5.22
20/03/2016,746.98,674.23,427.71,499.2,328.89,297.94,9.35,7.58,5.64,7.37,5.29,5.17
21/03/2016,757.45,685.54,434.57,505.31,332.76,301.28,10.47,11.31,6.86,6.11,3.87,3.34
22/03/2016,770.25,694.9,439.3,513.46,338.27,306.56,12.8,9.36,4.73,8.15,5.51,5.28
23/03/2016,788.37,709.61,446.75,524.31,342.49,310.13,18.12,14.71,7.45,10.85,4.22,3.57
24/03/2016,798.39,719.5,452.37,530.12,345.54,312.61,10.02,9.89,5.62,5.81,3.05,2.48
25/03/2016,808.83,729.12,457.81,536.38,350.33,316.91,10.44,9.62,5.44,6.26,4.79,4.3
26/03/2016,827.32,737.66,460.63,549.23,355.67,322.09,18.49,8.54,2.82,12.85,5.34,5.18
27/03/2016,836.72,747.72,467.04,554.99,360.07,325.94,9.4,10.06,6.41,5.76,4.4,3.85
28/03/2016,850.61,755.09,470.73,565.21,365.01,330.5,13.89,7.37,3.69,10.22,4.94,4.56
29/03/2016,865.19,764.82,476.65,575.97,370.04,335.3,14.58,9.73,5.92,10.76,5.03,4.8
30/03/2016,880.46,774.88,482.02,586.52,374.48,339.31,15.27,10.06,5.37,10.55,4.44,4.01
31/03/2016,896.97,783.95,486.52,598.41,379.37,343.76,16.51,9.07,4.5,11.89,4.89,4.45
01/04/2016,913.32,791.25,490.11,611.03,384.35,348.52,16.35,7.3,3.59,12.62,4.98,4.76
02/04/2016,928.95,800.46,494.02,621.47,389.8,353.81,15.63,9.21,3.91,10.44,5.45,5.29
03/04/2016,947.46,808.18,497.29,635.68,393.53,357.21,18.51,7.72,3.27,14.21,3.73,3.4
04/04/2016,961.78,819.77,504.3,645.46,397.7,360.87,14.32,11.59,7.01,9.78,4.17,3.66
05/04/2016,974.64,828.31,509.26,654.67,402.97,365.9,12.86,8.54,4.96,9.21,5.27,5.03
06/04/2016,991.56,838.15,513.36,665.78,408.11,370.67,16.92,9.84,4.1,11.11,5.14,4.77
07/04/2016,1005,845.99,517.24,675.07,413.4,375.66,13.44,7.84,3.88,9.29,5.29,4.99
08/04/2016,1016,853.5,521.22,682.89,418.46,380.5,11,7.51,3.98,7.82,5.06,4.84
09/04/2016,1031,862.79,525.73,692.81,423.56,385.38,15,9.29,4.51,9.92,5.1,4.88
10/04/2016,1045,868.16,527.89,703.48,428.8,390.47,14,5.37,2.16,10.67,5.24,5.09
11/04/2016,1062,875.02,530.13,716.15,433.84,395.22,17,6.86,2.24,12.67,5.04,4.75
12/04/2016,1073,883.15,534.77,723.74,439.2,400.37,11,8.13,4.64,7.59,5.36,5.15
13/04/2016,1091,889.22,536.57,737.49,444.45,405.43,18,6.07,1.8,13.75,5.25,5.06
14/04/2016,1109,896.18,539.31,750.89,448.95,409.59,18,6.96,2.74,13.4,4.5,4.16
15/04/2016,1124,902.98,542.21,762.53,454.26,414.77,15,6.8,2.9,11.64,5.31,5.18
16/04/2016,1135,911.75,547.58,769.6,459.35,419.53,11,8.77,5.37,7.07,5.09,4.76
17/04/2016,1147,923.17,553.52,776.34,463.97,423.7,12,11.42,5.94,6.74,4.62,4.17
18/04/2016,1165,931.64,556.1,788.46,468.88,428.24,18,8.47,2.58,12.12,4.91,4.54
19/04/2016,1179,943.18,561.18,795.41,473.05,431.9,14,11.54,5.08,6.95,4.17,3.66
20/04/2016,1194,952.88,565.18,805.72,478.23,436.86,15,9.7,4,10.31,5.18,4.96
21/04/2016,1212,964.01,569.83,817.27,479.73,438.32,18,11.13,4.65,11.55,1.5,1.46
22/04/2016,1224,976.03,575.91,823.5,480.98,439.55,12,12.02,6.08,6.23,1.25,1.23
23/04/2016,1229,985.72,581.96,824.43,482.35,440.91,5,9.69,6.05,0.93,1.37,1.36
24/04/2016,1240,996.77,586.81,829.56,486.06,444.42,11,11.05,4.85,5.13,3.71,3.51
25/04/2016,1250,1007,591.33,834.84,489.33,447.64,10,10.23,4.52,5.28,3.27,3.22
26/04/2016,1256,1016,596.55,836.52,492.58,450.86,6,9,5.22,1.68,3.25,3.22
27/04/2016,1269,1027,600.21,843.11,496.36,454.55,13,11,3.66,6.59,3.78,3.69
28/04/2016,1284,1038,604.81,850.89,499.01,457.14,15,11,4.6,7.78,2.65,2.59
29/04/2016,1298,1050,610.2,859.24,501.59,459.69,14,12,5.39,8.35,2.58,2.55
30/04/2016,1313,1060,612.96,866.24,504.44,462.49,15,10,2.76,7,2.85,2.8
01/05/2016,1328,1072,617.84,874.32,508,465.97,15,12,4.88,8.08,3.56,3.48
02/05/2016,1344,1084,622.45,883.91,510.31,468.25,16,12,4.61,9.59,2.31,2.28
03/05/2016,1355,1095,627.01,887.44,513.42,471.2,11,11,4.56,3.53,3.11,2.95
04/05/2016,1366,1106,631.79,891.99,516.71,474.4,11,11,4.78,4.55,3.29,3.2
05/05/2016,1383,1122,637.44,899.22,521.47,479.09,17,16,5.65,7.23,4.76,4.69
06/05/2016,1400,1137,643.79,906.99,524.59,482.14,17,15,6.35,7.77,3.12,3.05
07/05/2016,1414,1152,650.1,912.22,529.01,486.52,14,15,6.31,5.23,4.42,4.38
08/05/2016,1427,1165,655.03,918.48,532.57,489.98,13,13,4.93,6.26,3.56,3.46
09/05/2016,1444,1177,659.6,926.98,535.28,492.61,17,12,4.57,8.5,2.71,2.63
10/05/2016,1451,1191,666.62,928.14,538.37,495.68,7,14,7.02,1.16,3.09,3.07
11/05/2016,1456,1198,669.98,929.03,539.42,496.73,5,7,3.36,0.89,1.05,1.05
12/05/2016,1462,1209,675.32,930.01,542.39,499.64,6,11,5.34,0.98,2.97,2.91
13/05/2016,1477,1219,678.94,937.74,545.79,503.01,15,10,3.62,7.73,3.4,3.37
14/05/2016,1492,1232,683.25,945.21,549.51,506.65,15,13,4.31,7.47,3.72,3.64
15/05/2016,1507,1245,687.95,951.85,553.8,510.81,15,13,4.7,6.64,4.29,4.16
16/05/2016,1524,1260,693.57,959.76,558.55,515.5,17,15,5.62,7.91,4.75,4.69
17/05/2016,1540,1276,699.74,966.36,563.16,520.02,16,16,6.17,6.6,4.61,4.52
18/05/2016,1551,1289,704.84,969.15,567.03,523.74,11,13,5.1,2.79,3.87,3.72
19/05/2016,1557,1303,712.88,969.76,568.94,525.62,6,14,8.04,0.61,1.91,1.88
20/05/2016,1567,1316,717.83,971.96,573.36,529.99,10,13,4.95,2.2,4.42,4.37
21/05/2016,1578,1329,720.64,974.35,577.89,534.49,11,13,2.81,2.39,4.53,4.5
22/05/2016,1584,1345,730.79,974.93,579.39,535.93,6,16,10.15,0.58,1.5,1.44
23/05/2016,1596,1359,736.43,978.63,583.17,539.67,12,14,5.64,3.7,3.78,3.74
24/05/2016,1612,1374,741.67,985.05,587.72,544.15,16,15,5.24,6.42,4.55,4.48
25/05/2016,1627,1390,747.58,989.36,592.29,548.57,15,16,5.91,4.31,4.57,4.42
26/05/2016,1633,1403,755.01,990.03,593.15,549.42,6,13,7.43,0.67,0.86,0.85
27/05/2016,1646,1418,761.46,994.9,597.17,553.35,13,15,6.45,4.87,4.02,3.93
28/05/2016,1662,1433,766.54,1001,600.8,556.89,16,15,5.08,6.1,3.63,3.54
29/05/2016,1675,1449,772.91,1004,605.03,561.06,13,16,6.37,3,4.23,4.17
30/05/2016,1688,1463,777.91,1008,608.56,564.52,13,14,5,4,3.53,3.46
31/05/2016,1693,1475,785.26,1009,609.33,565.28,5,12,7.35,1,0.77,0.76
01/06/2016,1696,1487,794.72,1009,609.35,565.28,3,12,9.46,0,0.02,0
02/06/2016,1699,1498,802.76,1009,609.36,565.28,3,11,8.04,0,0.01,0
03/06/2016,1706,1511,809.84,1010,611.68,567.59,7,13,7.08,1,2.32,2.31
04/06/2016,1712,1528,820.84,1011,613.31,569.17,6,17,11,1,1.63,1.58
05/06/2016,1717,1539,827.51,1012,615.06,570.91,5,11,6.67,1,1.75,1.74
06/06/2016,1733,1548,828.84,1020,617.57,573.4,16,9,1.33,8,2.51,2.49
07/06/2016,1749,1557,830.42,1029,619.83,575.65,16,9,1.58,9,2.26,2.25
08/06/2016,1760,1568,832.54,1033,622.72,578.51,11,11,2.12,4,2.89,2.86
09/06/2016,1770,1576,834.45,1036,626.52,582.29,10,8,1.91,3,3.8,3.78
10/06/2016,1786,1587,836.34,1045,628.76,584.51,16,11,1.89,9,2.24,2.22
11/06/2016,1798,1597,838.52,1050,631.53,587.25,12,10,2.18,5,2.77,2.74
12/06/2016,1807,1606,840.43,1052,635.1,590.81,9,9,1.91,2,3.57,3.56
13/06/2016,1814,1619,846.88,1053,637.61,593.26,7,13,6.45,1,2.51,2.45
14/06/2016,1821,1632,854.32,1054,639.9,595.48,7,13,7.44,1,2.29,2.22
15/06/2016,1830,1649,862.59,1055,642.03,597.56,9,17,8.27,1,2.13,2.08
16/06/2016,1843,1664,869.21,1060,646.44,601.91,13,15,6.62,5,4.41,4.35
17/06/2016,1850,1675,873.92,1061,649.04,604.47,7,11,4.71,1,2.6,2.56
18/06/2016,1859,1688,880.14,1063,653.04,608.42,9,13,6.22,2,4,3.95
19/06/2016,1866,1698,885.01,1064,655.39,610.76,7,10,4.87,1,2.35,2.34
20/06/2016,1876,1711,891.03,1068,658.83,614.15,10,13,6.02,4,3.44,3.39
21/06/2016,1883,1725,898.87,1069,662.61,617.89,7,14,7.84,1,3.78,3.74
22/06/2016,1892,1737,904.25,1071,667.03,622.23,9,12,5.38,2,4.42,4.34
23/06/2016,1900,1750,909.51,1072,669.97,625.13,8,13,5.26,1,2.94,2.9
24/06/2016,1904,1757,913.83,1073,670.53,625.67,4,7,4.32,1,0.56,0.54
25/06/2016,1915,1771,919.35,1076,675.33,630.37,11,14,5.52,3,4.8,4.7
26/06/2016,1926,1785,924.37,1079,679.42,634.41,11,14,5.02,3,4.09,4.04
27/06/2016,1937,1796,928.57,1083,682.9,637.75,11,11,4.2,4,3.48,3.34
28/06/2016,1948,1807,933.5,1087,687.62,642.44,11,11,4.93,4,4.72,4.69
29/06/2016,1958,1824,941.85,1090,691.41,646.13,10,17,8.35,3,3.79,3.69
30/06/2016,1964,1837,951.05,1090,691.86,646.56,6,13,9.2,0,0.45,0.43
01/07/2016,1974,1850,955.46,1093,696.08,650.73,10,13,4.41,3,4.22,4.17
02/07/2016,1981,1863,962.22,1094,699.03,653.61,7,13,6.76,1,2.95,2.88
03/07/2016,1993,1880,971.03,1097,702.94,657.42,12,17,8.81,3,3.91,3.81
04/07/2016,2006,1896,977.85,1101,706.7,661.08,13,16,6.82,4,3.76,3.66
05/07/2016,2016,1911,984.66,1102,709.92,664.21,10,15,6.81,1,3.22,3.13
06/07/2016,2028,1926,991.11,1106,714.6,668.83,12,15,6.45,4,4.68,4.62
07/07/2016,2043,1944,998.87,1110,718.27,672.4,15,18,7.76,4,3.67,3.57
08/07/2016,2055,1959,1006,1114,722.68,676.75,12,15,7.13,4,4.41,4.35
09/07/2016,2063,1973,1012,1115,724.89,678.94,8,14,6,1,2.21,2.19
10/07/2016,2073,1988,1020,1117,728.77,682.78,10,15,8,2,3.88,3.84
11/07/2016,2082,2005,1029,1118,731.87,685.74,9,17,9,1,3.1,2.96
12/07/2016,2091,2019,1036,1119,735.42,689.21,9,14,7,1,3.55,3.47
13/07/2016,2100,2035,1045,1121,738.13,691.81,9,16,9,2,2.71,2.6
14/07/2016,2111,2050,1052,1124,741.53,695.13,11,15,7,3,3.4,3.32
15/07/2016,2124,2065,1058,1128,745.18,698.68,13,15,6,4,3.65,3.55
16/07/2016,2132,2074,1061,1130,748.51,701.99,8,9,3,2,3.33,3.31
17/07/2016,2145,2086,1066,1135,751.54,704.98,13,12,5,5,3.03,2.99
18/07/2016,2156,2099,1071,1138,755.39,708.77,11,13,5,3,3.85,3.79
19/07/2016,2172,2115,1078,1144,759.17,712.5,16,16,7,6,3.78,3.73
20/07/2016,2187,2132,1085,1149,761.47,714.72,15,17,7,5,2.3,2.22
21/07/2016,2200,2147,1092,1155,763.79,717.02,13,15,7,6,2.32,2.3
22/07/2016,2211,2162,1099,1158,767.34,720.52,11,15,7,3,3.55,3.5
23/07/2016,2219,2175,1105,1159,770.06,723.22,8,13,6,1,2.72,2.7
24/07/2016,2231,2192,1113,1161,773.84,726.93,12,17,8,2,3.78,3.71
25/07/2016,2240,2208,1121,1162,777.5,730.48,9,16,8,1,3.66,3.55
26/07/2016,2254,2227,1129,1165,781.55,734.42,14,19,8,3,4.05,3.94
27/07/2016,2265,2241,1136,1169,784.78,737.63,11,14,7,4,3.23,3.21
28/07/2016,2273,2257,1146,1169,787.52,740.26,8,16,10,0,2.74,2.63
29/07/2016,2282,2274,1156,1172,790.85,743.56,9,17,10,3,3.33,3.3
30/07/2016,2288,2286,1163,1172,792.11,744.78,6,12,7,0,1.26,1.22
31/07/2016,2296,2300,1171,1173,793.98,746.62,8,14,8,1,1.87,1.84
01/08/2016,2307,2317,1179,1176,797.8,750.38,11,17,8,3,3.82,3.76
02/08/2016,2313,2330,1187,1176,798.8,751.36,6,13,8,0,1,0.98
03/08/2016,2318,2346,1199,1176,798.99,751.52,5,16,12,0,0.19,0.16
04/08/2016,2329,2361,1206,1178,803.11,755.47,11,15,7,2,4.12,3.95
05/08/2016,2339,2376,1213,1181,807.3,759.6,10,15,7,3,4.19,4.13
06/08/2016,2352,2394,1221,1184,811.69,763.93,13,18,8,3,4.39,4.33
07/08/2016,2368,2412,1228,1190,814.67,766.83,16,18,7,6,2.98,2.9
08/08/2016,2378,2429,1236,1193,818.57,770.49,10,17,8,3,3.9,3.66
09/08/2016,2391,2452,1247,1195,823.1,774.86,13,23,11,2,4.53,4.37
10/08/2016,2404,2468,1255,1201,825.91,777.61,13,16,8,6,2.81,2.75
11/08/2016,2412,2485,1264,1201,828.81,780.46,8,17,9,0,2.9,2.85
12/08/2016,2422,2500,1270,1204,831.61,783.2,10,15,6,3,2.8,2.74
13/08/2016,2436,2520,1277,1208,835.55,787.07,14,20,7,4,3.94,3.87
14/08/2016,2445,2538,1285,1209,839.44,790.84,9,18,8,1,3.89,3.77
15/08/2016,2452,2555,1293,1210,842.23,793.6,7,17,8,1,2.79,2.76
16/08/2016,2465,2575,1302,1214,845.86,797.13,13,20,9,4,3.63,3.53
17/08/2016,2478,2593,1308,1217,850.28,801.38,13,18,6,3,4.42,4.25
18/08/2016,2491,2613,1316,1221,853.77,804.78,13,20,8,4,3.49,3.4
19/08/2016,2500,2631,1325,1223,857.07,807.95,9,18,9,2,3.3,3.17
20/08/2016,2504,2646,1334,1223,857.48,808.33,4,15,9,0,0.41,0.38
21/08/2016,2514,2663,1342,1225,861.44,812.18,10,17,8,2,3.96,3.85
22/08/2016,2521,2680,1350,1225,864.87,815.46,7,17,8,0,3.43,3.28
23/08/2016,2529,2699,1360,1226,867.25,817.78,8,19,10,1,2.38,2.32
24/08/2016,2542,2718,1366,1230,871.79,822.27,13,19,6,4,4.54,4.49
25/08/2016,2556,2736,1374,1235,874.47,824.88,14,18,8,5,2.68,2.61
26/08/2016,2562,2752,1383,1235,877.3,827.69,6,16,9,0,2.83,2.81
27/08/2016,2575,2770,1389,1239,880.28,830.61,13,18,6,4,2.98,2.92
28/08/2016,2582,2785,1396,1240,883.12,833.42,7,15,7,1,2.84,2.81
29/08/2016,2588,2800,1404,1240,885.84,836.08,6,15,8,0,2.72,2.66
30/08/2016,2596,2819,1414,1242,890.18,840.34,8,19,10,2,4.34,4.26
31/08/2016,2609,2836,1420,1246,893.36,843.43,13,17,6,4,3.18,3.09
01/09/2016,2618,2854,1428,1247,896.51,846.42,9,18,8,1,3.15,2.99
02/09/2016,2631,2871,1435,1251,900.16,850.01,13,17,7,4,3.65,3.59
03/09/2016,2634,2884,1444,1251,900.47,850.31,3,13,9,0,0.31,0.3
04/09/2016,2639,2899,1454,1252,903.33,853.08,5,15,10,1,2.86,2.77
05/09/2016,2644,2910,1462,1252,904.11,853.85,5,11,8,0,0.78,0.77
06/09/2016,2648,2926,1474,1253,904.73,854.46,4,16,12,1,0.62,0.61
07/09/2016,2650,2939,1485,1253,904.98,854.69,2,13,11,0,0.25,0.23
08/09/2016,2655,2954,1495,1253,906.77,856.42,5,15,10,0,1.79,1.73
09/09/2016,2665,2968,1503,1259,909.38,858.82,10,14,8,6,2.61,2.4
10/09/2016,2673,2983,1511,1260,912.51,861.73,8,15,8,1,3.13,2.91
11/09/2016,2674,2995,1522,1260,913.76,862.96,1,12,11,0,1.25,1.23
12/09/2016,2684,3011,1531,1263,917.96,867.07,10,16,9,3,4.2,4.11
13/09/2016,2690,3023,1539,1263,919.65,868.63,6,12,8,0,1.69,1.56
14/09/2016,2700,3035,1545,1267,923.19,872.11,10,12,6,4,3.54,3.48
15/09/2016,2710,3053,1556,1270,926.34,875.2,10,18,11,3,3.15,3.09
16/09/2016,2720,3066,1563,1273,929.13,877.94,10,13,7,3,2.79,2.74
17/09/2016,2721,3077,1573,1273,929.56,878.34,1,11,10,0,0.43,0.4
18/09/2016,2722,3089,1584,1273,929.78,878.54,1,12,11,0,0.22,0.2
19/09/2016,2727,3099,1590,1274,932.22,880.93,5,10,6,1,2.44,2.39
20/09/2016,2731,3113,1601,1274,933.49,882.17,4,14,11,0,1.27,1.24
21/09/2016,2733,3124,1609,1274,933.72,882.39,2,11,8,0,0.23,0.22
22/09/2016,2739,3137,1618,1275,937.13,885.77,6,13,9,1,3.41,3.38
23/09/2016,2744,3149,1626,1275,939.65,888.22,5,12,8,0,2.52,2.45
24/09/2016,2755,3164,1634,1279,943.62,891.98,11,15,8,4,3.97,3.76
25/09/2016,2763,3175,1640,1281,947.7,895.94,8,11,6,2,4.08,3.96
26/09/2016,2771,3188,1647,1282,951.09,899.18,8,13,7,1,3.39,3.24
27/09/2016,2775,3199,1654,1282,952.25,900.33,4,11,7,0,1.16,1.15
28/09/2016,2778,3211,1663,1283,952.6,900.68,3,12,9,1,0.35,0.35
29/09/2016,2786,3221,1670,1285,956.4,904.42,8,10,7,2,3.8,3.74
30/09/2016,2791,3233,1678,1285,959.29,907.27,5,12,8,0,2.89,2.85
01/10/2016,2800,3249,1687,1287,962.96,910.79,9,16,9,2,3.67,3.52
02/10/2016,2803,3259,1695,1287,965.1,912.88,3,10,8,0,2.14,2.09
03/10/2016,2811,3271,1703,1289,969.03,916.68,8,12,8,2,3.93,3.8
04/10/2016,2821,3283,1710,1293,971.76,919.34,10,12,7,4,2.73,2.66
05/10/2016,2830,3297,1719,1295,975.39,922.85,9,14,9,2,3.63,3.51
06/10/2016,2840,3312,1729,1298,978.81,926.2,10,15,10,3,3.42,3.35
07/10/2016,2844,3324,1737,1298,980.44,927.77,4,12,8,0,1.63,1.57
08/10/2016,2846,3337,1749,1298,980.61,927.93,2,13,12,0,0.17,0.16
09/10/2016,2849,3345,1756,1298,982.08,929.39,3,8,7,0,1.47,1.46
10/10/2016,2855,3358,1765,1299,984.57,931.83,6,13,9,1,2.49,2.44
11/10/2016,2863,3374,1776,1302,987.36,934.54,8,16,11,3,2.79,2.71
12/10/2016,2871,3392,1788,1302,990.77,937.86,8,18,12,0,3.41,3.32
13/10/2016,2875,3405,1797,1302,992.89,939.94,4,13,9,0,2.12,2.08
14/10/2016,2879,3417,1807,1302,994.62,941.61,4,12,10,0,1.73,1.67
15/10/2016,2882,3429,1816,1303,995.41,942.38,3,12,9,1,0.79,0.77
16/10/2016,2886,3440,1825,1303,996.88,943.78,4,11,9,0,1.47,1.4
17/10/2016,2890,3451,1833,1303,998.84,945.66,4,11,8,0,1.96,1.88
18/10/2016,2895,3462,1840,1303,1001,947.39,5,11,7,0,2.16,1.73
19/10/2016,2899,3474,1851,1304,1002,949.16,4,12,11,1,1,1.77
20/10/2016,2903,3488,1862,1304,1004,950.9,4,14,11,0,2,1.74
21/10/2016,2907,3497,1869,1304,1006,952.91,4,9,7,0,2,2.01
22/10/2016,2909,3507,1878,1305,1007,953.58,2,10,9,1,1,0.67
23/10/2016,2912,3517,1888,1305,1008,954.24,3,10,10,0,1,0.66
24/10/2016,2916,3526,1894,1305,1010,957.04,4,9,6,0,2,2.8
25/10/2016,2919,3535,1902,1305,1011,957.9,3,9,8,0,1,0.86
26/10/2016,2920,3543,1911,1305,1012,958.18,1,8,9,0,1,0.28
27/10/2016,2922,3552,1919,1305,1012,958.97,2,9,8,0,0,0.79
28/10/2016,2926,3560,1926,1306,1015,961.11,4,8,7,1,3,2.14
29/10/2016,2929,3569,1933,1306,1017,963.11,3,9,7,0,2,2
30/10/2016,2929,3575,1939,1306,1017,963.22,0,6,6,0,0,0.11
31/10/2016,2929,3582,1946,1306,1017,963.28,0,7,7,0,0,0.06
01/11/2016,2931,3591,1954,1306,1017,963.9,2,9,8,0,0,0.62
02/11/2016,2931,3597,1960,1306,1017,963.9,0,6,6,0,0,0
03/11/2016,2934,3608,1969,1306,1019,965.8,3,11,9,0,2,1.9
04/11/2016,2937,3619,1979,1306,1021,967.08,3,11,10,0,2,1.28
05/11/2016,2938,3627,1986,1306,1021,967.15,1,8,7,0,0,0.07
06/11/2016,2939,3636,1995,1306,1021,967.33,1,9,9,0,0,0.18
07/11/2016,2942,3647,2003,1307,1022,968.77,3,11,8,1,1,1.44
08/11/2016,2944,3656,2012,1307,1023,969.64,2,9,9,0,1,0.87
09/11/2016,2947,3667,2023,1307,1024,970.09,3,11,11,0,1,0.45
10/11/2016,2948,3674,2030,1307,1024,970.47,1,7,7,0,0,0.38
11/11/2016,2950,3680,2036,1307,1025,971.06,2,6,6,0,1,0.59
12/11/2016,2952,3688,2044,1307,1026,972.32,2,8,8,0,1,1.26
13/11/2016,2952,3698,2053,1307,1026,972.32,0,10,9,0,0,0
14/11/2016,2954,3706,2060,1307,1027,973.32,2,8,7,0,1,1
15/11/2016,2954,3715,2069,1307,1027,973.38,0,9,9,0,0,0.06
